When you browse on this site, cookies collect data to enhance your experience and personalize the content and advertising you see.
Visit our Privacy Policy to learn more. By continuing to use the site, you agree to this use of cookies and data.
  • en Suisse
  • Liste des pays
  • À 7 jours
  • Température de l'eau
  • Carte météo
  • Widgets météo
  • user-avatar
    Se connecter

    Météo par heure à Springfield

    Ce jour, 15 Décembre, Dimanche

    Heure Température Précipitation Vent Pression Humidité
    00:00 +2°C° 0 mm 5 m/s 717 mmHg 88%
    01:00 -1°C° 0 mm 6 m/s 718 mmHg 86%
    02:00 -1°C° 0 mm 6 m/s 718 mmHg 86%
    03:00 -1°C° 0 mm 6 m/s 719 mmHg 86%
    04:00 -2°C° 0 mm 6 m/s 719 mmHg 86%
    05:00 -2°C° 0 mm 6 m/s 721 mmHg 85%
    06:00 -2°C° 0 mm 6 m/s 722 mmHg 83%
    07:00 -2°C° 0 mm 6 m/s 723 mmHg 82%
    08:00 -1°C° 0 mm 7 m/s 723 mmHg 79%
    09:00 -1°C° 0 mm 7 m/s 724 mmHg 77%
    10:00 -1°C° 0 mm 8 m/s 725 mmHg 75%
    11:00 -1°C° 0 mm 8 m/s 726 mmHg 74%
    12:00 -1°C° 0 mm 8 m/s 727 mmHg 73%
    13:00 -1°C° 0 mm 7 m/s 727 mmHg 72%
    14:00 -2°C° 0 mm 7 m/s 728 mmHg 71%
    15:00 -3°C° 0 mm 7 m/s 729 mmHg 69%
    16:00 -4°C° 0 mm 7 m/s 730 mmHg 68%
    17:00 -6°C° 0 mm 7 m/s 731 mmHg 67%
    18:00 -7°C° 0 mm 7 m/s 733 mmHg 67%
    19:00 -8°C° 0 mm 7 m/s 734 mmHg 67%
    20:00 -8°C° 0 mm 6 m/s 735 mmHg 64%
    21:00 -9°C° 0 mm 6 m/s 736 mmHg 61%
    22:00 -9°C° 0 mm 6 m/s 736 mmHg 59%
    23:00 -10°C° 0 mm 6 m/s 737 mmHg 57%

    Demain, 16 Décembre, Lundi

    Heure Température Précipitation Vent Pression Humidité
    00:00 -10°C° 0 mm 5 m/s 738 mmHg 55%
    01:00 -10°C° 0 mm 5 m/s 739 mmHg 54%
    02:00 -9°C° 0 mm 4 m/s 739 mmHg 53%
    03:00 -9°C° 0 mm 4 m/s 739 mmHg 52%
    04:00 -9°C° 0 mm 4 m/s 740 mmHg 52%
    05:00 -8°C° 0 mm 3 m/s 740 mmHg 53%
    06:00 -8°C° 0 mm 3 m/s 741 mmHg 54%
    07:00 -7°C° 0 mm 2 m/s 741 mmHg 55%
    08:00 -7°C° 0 mm 2 m/s 742 mmHg 52%
    09:00 -6°C° 0 mm 2 m/s 742 mmHg 49%
    10:00 -5°C° 0 mm 2 m/s 742 mmHg 46%
    11:00 -5°C° 0 mm 2 m/s 742 mmHg 45%
    12:00 -4°C° 0 mm 2 m/s 742 mmHg 44%
    13:00 -3°C° 0 mm 2 m/s 742 mmHg 42%
    14:00 -3°C° 0 mm 2 m/s 741 mmHg 46%
    15:00 -2°C° 0 mm 1 m/s 741 mmHg 50%
    16:00 -2°C° 0 mm 1 m/s 741 mmHg 54%
    17:00 -3°C° 0 mm 1 m/s 741 mmHg 57%
    18:00 -3°C° 0 mm 1 m/s 741 mmHg 60%
    19:00 -4°C° 0 mm 0 m/s 741 mmHg 62%
    20:00 -4°C° 0 mm 0 m/s 741 mmHg 63%
    21:00 -4°C° 0 mm 0 m/s 740 mmHg 64%
    22:00 -4°C° 0 mm 0 m/s 740 mmHg 64%
    23:00 -4°C° 0 mm 0 m/s 740 mmHg 65%

    Après-demain, 17 Décembre, Mardi

    Heure Température Précipitation Vent Pression Humidité
    00:00 -4°C° 0 mm 0 m/s 740 mmHg 66%
    01:00 -4°C° 0 mm 0 m/s 739 mmHg 66%
    02:00 -4°C° 0 mm 0 m/s 739 mmHg 66%
    03:00 -4°C° 0 mm 0 m/s 738 mmHg 65%
    04:00 -4°C° 0 mm 0 m/s 737 mmHg 64%
    05:00 -4°C° 0.5 mm 0 m/s 737 mmHg 71%
    06:00 -4°C° 0.5 mm 0 m/s 736 mmHg 77%
    07:00 -3°C° 0.5 mm 1 m/s 736 mmHg 84%
    08:00 -3°C° 1.5 mm 1 m/s 735 mmHg 86%
    09:00 -3°C° 1.5 mm 1 m/s 735 mmHg 89%
    10:00 -3°C° 1.5 mm 1 m/s 734 mmHg 91%
    11:00 -2°C° 1.2 mm 1 m/s 733 mmHg 91%
    12:00 -2°C° 1.2 mm 1 m/s 732 mmHg 91%
    13:00 -2°C° 1.2 mm 1 m/s 731 mmHg 92%
    14:00 -2°C° 0.8 mm 1 m/s 731 mmHg 93%
    15:00 -2°C° 0.8 mm 1 m/s 731 mmHg 94%
    16:00 -2°C° 0.8 mm 1 m/s 730 mmHg 95%
    17:00 -2°C° 0.2 mm 1 m/s 731 mmHg 95%
    18:00 -3°C° 0.2 mm 1 m/s 731 mmHg 96%
    19:00 -3°C° 0.2 mm 1 m/s 731 mmHg 96%
    20:00 -4°C° 0 mm 1 m/s 731 mmHg 96%
    21:00 -4°C° 0 mm 1 m/s 731 mmHg 96%
    22:00 -6°C° 0 mm 1 m/s 731 mmHg 95%
    23:00 -6°C° 0 mm 1 m/s 731 mmHg 95%

    18 Décembre, Mercredi

    Heure Température Précipitation Vent Pression Humidité
    00:00 -6°C° 0 mm 1 m/s 731 mmHg 94%
    01:00 -6°C° 0 mm 1 m/s 732 mmHg 94%
    02:00 -7°C° 0 mm 1 m/s 732 mmHg 94%
    03:00 -7°C° 0 mm 1 m/s 732 mmHg 93%
    04:00 -7°C° 0 mm 1 m/s 732 mmHg 93%
    05:00 -8°C° 0 mm 1 m/s 732 mmHg 93%
    06:00 -8°C° 0 mm 1 m/s 732 mmHg 93%
    07:00 -8°C° 0 mm 1 m/s 732 mmHg 93%
    08:00 -8°C° 0 mm 2 m/s 732 mmHg 88%
    09:00 -6°C° 0 mm 2 m/s 732 mmHg 83%
    10:00 -5°C° 0 mm 3 m/s 732 mmHg 78%
    11:00 -5°C° 0 mm 4 m/s 731 mmHg 76%
    12:00 -5°C° 0 mm 4 m/s 731 mmHg 74%
    13:00 -5°C° 0 mm 5 m/s 730 mmHg 71%
    14:00 -6°C° 0.1 mm 5 m/s 730 mmHg 75%
    15:00 -7°C° 0.1 mm 5 m/s 731 mmHg 79%
    16:00 -10°C° 0.1 mm 5 m/s 731 mmHg 83%
    17:00 -11°C° 0.1 mm 5 m/s 731 mmHg 79%
    18:00 -12°C° 0.1 mm 5 m/s 732 mmHg 76%
    19:00 -13°C° 0.1 mm 5 m/s 732 mmHg 72%
    20:00 -14°C° 0 mm 5 m/s 733 mmHg 72%
    21:00 -17°C° 0 mm 5 m/s 733 mmHg 73%
    22:00 -18°C° 0 mm 5 m/s 734 mmHg 73%
    23:00 -19°C° 0 mm 5 m/s 734 mmHg 74%

    19 Décembre, Jeudi

    Heure Température Précipitation Vent Pression Humidité
    00:00 -20°C° 0 mm 5 m/s 734 mmHg 74%
    01:00 -21°C° 0 mm 5 m/s 735 mmHg 75%
    02:00 -21°C° 0 mm 5 m/s 736 mmHg 76%
    03:00 -20°C° 0 mm 4 m/s 736 mmHg 77%
    04:00 -20°C° 0 mm 4 m/s 737 mmHg 79%
    05:00 -20°C° 0 mm 4 m/s 738 mmHg 80%
    06:00 -22°C° 0 mm 4 m/s 738 mmHg 81%
    07:00 -21°C° 0 mm 3 m/s 739 mmHg 81%
    08:00 -20°C° 0 mm 4 m/s 739 mmHg 78%
    09:00 -19°C° 0 mm 4 m/s 740 mmHg 74%
    10:00 -18°C° 0 mm 4 m/s 741 mmHg 70%
    11:00 -17°C° 0 mm 4 m/s 741 mmHg 69%
    12:00 -17°C° 0 mm 4 m/s 741 mmHg 68%
    13:00 -16°C° 0 mm 4 m/s 741 mmHg 67%
    14:00 -16°C° 0 mm 4 m/s 741 mmHg 70%
    15:00 -16°C° 0 mm 3 m/s 742 mmHg 74%
    16:00 -15°C° 0 mm 2 m/s 742 mmHg 77%
    17:00 -16°C° 0 mm 2 m/s 742 mmHg 80%
    18:00 -15°C° 0 mm 1 m/s 743 mmHg 83%
    19:00 -15°C° 0 mm 1 m/s 743 mmHg 86%
    20:00 -16°C° 0 mm 1 m/s 743 mmHg 87%
    21:00 -16°C° 0 mm 1 m/s 744 mmHg 87%
    22:00 -16°C° 0 mm 1 m/s 744 mmHg 88%
    23:00 -16°C° 0 mm 1 m/s 744 mmHg 88%

    20 Décembre, Vendredi

    Heure Température Précipitation Vent Pression Humidité
    00:00 -16°C° 0 mm 1 m/s 744 mmHg 89%
    01:00 -16°C° 0 mm 1 m/s 744 mmHg 89%
    02:00 -16°C° 0 mm 1 m/s 744 mmHg 90%
    03:00 -17°C° 0 mm 1 m/s 744 mmHg 90%
    04:00 -17°C° 0 mm 1 m/s 744 mmHg 90%
    05:00 -17°C° 0 mm 1 m/s 745 mmHg 90%
    06:00 -17°C° 0 mm 1 m/s 745 mmHg 90%
    07:00 -17°C° 0 mm 1 m/s 745 mmHg 91%
    08:00 -18°C° 0 mm 2 m/s 745 mmHg 83%
    09:00 -16°C° 0 mm 2 m/s 745 mmHg 76%
    10:00 -15°C° 0 mm 3 m/s 746 mmHg 69%
    11:00 -15°C° 0 mm 3 m/s 746 mmHg 67%
    12:00 -15°C° 0 mm 4 m/s 745 mmHg 65%
    13:00 -14°C° 0 mm 4 m/s 745 mmHg 62%
    14:00 -15°C° 0 mm 4 m/s 746 mmHg 67%
    15:00 -15°C° 0 mm 3 m/s 746 mmHg 72%
    16:00 -14°C° 0 mm 2 m/s 747 mmHg 77%
    17:00 -15°C° 0 mm 2 m/s 747 mmHg 81%
    18:00 -16°C° 0 mm 2 m/s 748 mmHg 84%
    19:00 -17°C° 0 mm 2 m/s 748 mmHg 88%
    20:00 -18°C° 0 mm 2 m/s 749 mmHg 89%
    21:00 -18°C° 0 mm 2 m/s 749 mmHg 89%
    22:00 -18°C° 0 mm 2 m/s 750 mmHg 90%
    23:00 -18°C° 0 mm 2 m/s 750 mmHg 91%
    Voir plus